Volver al catálogo

STARLINK-11148

ActivoComunicacionesVLEO
NORAD 60044·PAYLOAD·🇺🇸 United States

Lanzado Jun 8, 2024 desde Vandenberg Space Force Base

Loading…

Próximos Pases (próximas 24 horas)

TLE

ActualizadoSource: CelesTrak SupGP

Época: Sep 14, 2026, 22:13 UTC

1 60044C 24112G   26257.92618056  .00088352  00000+0  72765-3 0  2575
2 60044  53.1570  53.3910 0001041  73.9260 260.0332 15.69669854    17

Sigue STARLINK-11148 en tiempo real con AllMySat

Download on the App Store